Date,TemperatureHighF,TemperatureAvgF,TemperatureLowF,DewpointHighF,DewpointAvgF,DewpointLowF,HumidityHigh,HumidityAvg,HumidityLow,PressureMaxIn,PressureMinIn,WindSpeedMaxMPH,WindSpeedAvgMPH,GustSpeedMaxMPH,PrecipitationSumIn
2014-1-1,77,55,40,54,47,39,99,77,42,29.96,29.85,6,1,21,0.00
2014-1-2,86,63,45,50,39,27,99,47,16,29.91,29.81,5,1,8,0.00
2014-1-3,74,56,44,58,47,37,99,75,28,29.85,29.73,6,1,10,0.00
2014-1-4,71,55,44,58,51,44,99,86,53,29.86,29.75,4,1,8,0.00
2014-1-5,81,63,41,48,27,16,99,38,12,29.99,29.85,13,3,24,0.00
2014-1-6,83,67,52,31,22,16,38,19,11,30.04,29.91,14,4,24,0.01
2014-1-7,73,57,44,57,35,15,98,52,14,29.96,29.86,4,1,8,0.00
2014-1-8,73,56,44,58,48,34,99,75,36,29.95,29.83,6,1,9,0.00
2014-1-9,70,54,44,59,50,44,99,89,55,29.95,29.80,4,1,8,0.00
2014-1-10,75,57,44,58,49,40,99,76,42,29.95,29.84,5,1,8,0.00
2014-1-11,76,57,44,56,50,43,99,80,35,30.00,29.86,6,1,10,0.00
2014-1-12,80,62,45,52,38,22,99,51,13,29.99,29.86,11,2,21,0.00
2014-1-13,81,71,59,24,21,17,25,15,11,30.22,29.99,13,5,24,0.00
2014-1-14,88,76,66,32,24,16,18,14,11,30.15,30.03,14,5,24,0.00
2014-1-15,90,78,63,31,24,16,23,14,11,30.05,29.93,14,4,24,0.00
2014-1-16,88,75,62,32,22,16,23,14,11,29.97,29.85,16,4,27,0.00
2014-1-17,93,73,51,41,26,17,44,20,11,29.94,29.84,9,2,15,0.00
2014-1-18,86,61,48,49,30,16,69,35,11,29.91,29.84,5,1,8,0.00
2014-1-19,83,58,42,48,36,27,72,48,16,29.93,29.84,5,1,8,0.00
2014-1-20,86,58,40,50,38,24,80,54,12,30.00,29.89,6,1,9,0.00
2014-1-21,80,69,45,41,26,18,83,28,12,29.99,29.87,7,2,14,0.00
2014-1-22,79,79,79,22,22,22,12,10,10,29.88,29.70,3,3,7,0.00
2014-1-23,79,79,79,22,22,22,10,10,10,29.89,29.69,3,3,7,0.00
2014-1-24,79,79,79,22,22,22,10,10,10,30.03,29.89,3,3,7,0.00
2014-1-25,79,79,79,22,22,22,10,10,10,30.02,29.93,3,3,7,0.00
2014-1-26,79,79,79,22,22,22,10,10,10,29.96,29.85,3,3,7,0.00
2014-1-27,79,79,79,22,22,22,10,10,10,29.91,29.85,3,3,7,0.00
2014-9-6,87,71,57,69,63,57,99,78,45,29.97,29.84,0,0,0,0.00
2014-9-7,91,74,59,67,64,59,99,74,41,29.87,29.77,0,0,0,0.00
2014-9-8,88,75,67,71,68,65,97,80,49,29.91,29.82,0,0,0,0.00
2014-9-9,88,73,58,65,62,56,99,72,35,29.95,29.87,0,0,0,0.00
2014-9-10,88,72,55,66,60,54,99,71,32,29.94,29.83,0,0,0,0.00
2014-9-11,88,75,62,67,64,58,99,72,43,29.89,29.82,0,0,0,0.00
2014-9-12,88,72,61,68,65,60,99,82,48,29.88,29.79,0,0,0,0.00
2014-9-13,92,74,61,72,66,60,99,78,45,29.92,29.74,0,0,0,0.00
2014-9-14,95,78,64,71,67,63,99,74,43,29.94,29.82,0,0,0,0.00
2014-9-15,94,78,66,70,67,65,99,72,40,30.03,29.82,0,0,0,0.00
2014-9-16,76,70,66,67,66,64,97,86,69,29.95,29.87,0,0,0,0.00
2014-9-17,89,76,67,70,65,62,95,70,44,29.98,29.77,0,0,0,0.00
2014-9-18,84,72,61,69,65,60,98,80,56,30.11,29.87,0,0,0,0.00
2014-9-19,83,72,63,69,66,62,99,81,57,30.17,30.00,0,0,0,0.00
2014-9-20,85,70,60,69,65,60,99,84,56,30.13,30.05,0,0,0,0.00
2014-9-21,83,71,62,67,65,62,99,84,56,30.18,30.10,0,0,0,0.00
2014-9-22,85,71,57,70,64,57,99,81,54,30.16,30.07,0,0,0,0.00
2014-9-23,86,68,56,68,63,56,99,86,52,30.16,29.91,0,0,0,0.00
2014-9-24,81,63,53,68,60,52,99,92,54,30.07,29.92,0,0,0,0.00
2014-9-25,88,72,60,69,63,55,99,77,38,30.02,29.92,0,0,0,0.00
2014-9-26,83,71,60,72,64,60,99,79,48,29.96,29.88,0,0,0,0.00
2014-9-27,81,69,58,65,61,55,99,79,43,29.97,29.84,0,0,0,0.00
2014-9-28,82,68,57,67,60,57,99,79,50,30.00,29.90,0,0,0,0.00
2014-9-29,87,70,55,62,59,54,99,72,34,30.02,29.93,0,0,0,0.00
2014-9-30,82,68,61,65,63,59,98,86,46,29.84,29.82,0,0,0,0.00
2014-10-1,84,70,55,68,62,53,99,79,47,29.94,29.82,0,0,0,0.00
2014-10-2,104,77,54,62,49,33,99,51,11,30.05,29.93,0,0,0,0.00
2014-10-3,104,78,59,47,36,23,56,26,11,30.09,30.02,0,0,0,0.00
2014-10-4,97,71,58,53,47,43,63,45,23,30.02,29.96,0,0,0,0.00
2014-10-5,93,71,56,64,56,43,90,65,23,29.98,29.90,0,0,0,0.00
2014-10-6,90,72,55,68,59,47,99,68,29,29.99,29.89,0,0,0,0.00
2014-10-7,90,72,54,67,62,53,99,75,33,29.99,29.88,0,0,0,0.00
2014-10-8,87,70,55,65,60,53,99,74,35,29.94,29.86,0,0,0,0.00
2014-10-9,83,70,56,68,63,56,99,80,51,30.02,29.94,0,0,0,0.00
2014-10-10,81,70,60,68,64,60,99,84,60,30.07,29.98,0,0,0,0.00
2014-10-11,83,68,57,69,63,57,99,85,56,30.07,29.97,0,0,0,0.00
2014-10-12,82,68,60,69,64,60,99,87,62,30.01,29.92,0,0,0,0.00
2014-10-13,81,68,60,73,64,60,99,89,65,30.09,30.00,0,0,0,0.00
2014-10-14,79,69,61,66,63,60,99,84,60,30.08,29.98,0,0,0,0.00
2014-10-15,83,69,61,65,62,57,97,80,44,30.08,30.01,0,0,0,0.00
2014-10-16,83,69,57,66,62,57,99,81,44,30.10,29.98,0,0,0,0.00
2014-10-17,80,67,56,66,60,56,99,82,54,30.05,29.99,0,0,0,0.00
2014-10-18,83,68,55,64,59,55,99,78,45,30.02,29.90,0,0,0,0.00
2014-10-19,82,68,56,67,62,54,99,81,55,29.99,29.90,0,0,0,0.00
2014-10-20,80,69,61,67,64,60,99,86,59,30.02,29.93,0,0,0,0.00
2014-10-21,83,68,55,65,60,54,99,79,41,30.00,29.90,0,0,0,0.00
2014-10-22,85,69,54,64,57,45,98,70,29,30.02,29.93,0,0,0,0.00
2014-10-23,88,70,54,65,57,50,95,69,35,30.07,29.97,0,0,0,0.00
2014-10-24,86,68,52,68,57,45,99,72,32,30.09,29.99,0,0,0,0.00
2014-10-25,84,68,56,67,60,49,99,79,33,30.13,30.05,0,0,0,0.00
2014-10-26,83,72,60,68,60,52,99,67,40,29.92,29.79,0,0,0,0.00
2014-10-27,82,66,52,57,50,43,86,61,26,29.88,29.80,0,0,0,0.00
2014-10-28,82,66,52,62,56,49,97,72,42,29.95,29.88,0,0,0,0.00
2014-10-29,85,67,53,64,57,49,99,73,34,29.96,29.88,0,0,0,0.00
2014-10-30,83,66,56,68,58,48,99,77,36,29.93,29.84,0,0,0,0.00
2014-10-31,72,64,57,65,60,57,99,86,64,29.91,29.73,0,0,0,0.59
2014-11-1,72,61,52,69,55,50,99,82,53,29.91,29.74,0,0,0,0.04
2014-11-2,77,61,48,55,50,45,99,72,36,30.00,29.90,0,0,0,0.00
2014-11-3,83,63,46,47,40,29,91,51,15,30.10,30.00,0,0,0,0.00
2014-11-4,88,69,51,51,35,22,78,34,13,30.13,30.02,0,0,0,0.00
2014-11-5,93,78,58,68,41,22,99,35,12,30.02,29.78,0,0,0,0.63
2014-11-6,97,74,58,57,43,35,63,37,12,29.99,29.90,0,0,0,0.00
2014-11-7,66,62,57,44,41,39,59,46,38,29.93,29.89,0,0,0,0.00
2014-11-8,86,69,55,63,59,53,99,74,35,29.84,29.79,0,0,0,0.00
2014-11-9,78,64,50,66,58,47,99,85,54,29.83,29.65,0,0,0,0.00
2014-11-10,74,65,61,62,59,58,95,82,59,29.73,29.67,0,0,0,0.00
2014-11-11,72,65,62,61,59,57,92,81,63,29.81,29.72,0,0,0,0.00
2014-11-13,63,63,61,62,62,61,98,97,97,29.87,29.83,0,0,0,0.02
2014-11-14,80,66,56,70,62,56,99,88,56,29.87,29.79,0,0,0,0.00
2014-11-15,79,63,53,64,58,52,99,86,54,29.92,29.83,0,0,0,0.01
2014-11-16,77,64,49,53,31,20,99,38,14,30.05,29.86,0,0,0,0.02
2014-11-17,81,70,64,27,23,20,19,16,13,30.01,29.90,0,0,0,0.00
2014-11-18,67,64,62,22,21,20,21,19,17,29.96,29.93,0,0,0,0.00
2014-11-19,77,59,50,60,52,31,99,80,30,29.99,29.91,0,0,0,0.00
2014-11-20,61,54,50,58,53,50,99,96,77,29.94,29.82,0,0,0,0.00
2014-11-21,78,62,51,62,53,47,99,76,36,29.90,29.76,0,0,0,0.01
2014-11-22,78,62,46,64,52,42,98,73,38,29.95,29.81,0,0,0,0.00
2014-11-23,83,64,49,59,40,24,99,50,14,30.01,29.88,0,0,0,0.00
2014-11-24,82,67,48,38,27,21,60,26,13,30.16,29.99,0,0,0,0.00
2014-11-25,90,66,51,42,30,19,54,29,13,30.23,30.09,0,0,0,0.00
2014-11-26,81,57,47,37,32,27,62,41,15,30.10,30.04,0,0,0,0.00
2014-11-27,82,72,66,68,66,65,98,84,61,29.91,29.84,0,0,0,0.00
2014-11-28,140,68,51,68,51,6,99,63,1,29.93,29.81,0,0,0,1.40
2014-11-29,81,60,43,63,51,40,99,77,31,29.86,29.76,0,0,0,0.00
2014-11-30,70,61,56,66,60,54,99,94,82,30.03,29.81,0,0,0,0.08
2014-12-1,74,64,58,64,60,56,99,91,63,30.10,29.93,0,0,3,0.00
2014-12-2,65,60,58,60,58,54,99,92,68,29.93,29.81,0,0,0,1.20
2014-12-3,69,64,60,69,63,60,99,98,92,29.92,29.84,0,0,0,0.09
2014-12-4,77,64,55,69,60,54,99,90,59,30.01,26.98,0,0,0,0.00
2014-12-5,72,61,55,66,59,54,99,93,72,30.09,29.99,0,0,0,0.01
2014-12-6,79,64,54,67,58,53,99,84,47,30.15,30.07,0,0,0,0.01
2014-12-7,87,64,50,63,57,49,99,84,34,30.14,30.04,0,0,0,0.00
2014-12-8,88,63,51,62,55,48,99,79,27,30.06,29.96,0,0,0,0.01
2014-12-9,87,64,50,61,53,47,93,72,30,30.06,29.93,0,0,0,0.00
2014-12-10,75,61,48,64,54,46,99,80,48,29.97,29.88,0,0,0,0.00
2014-12-11,73,62,53,62,57,53,99,86,67,29.92,29.75,0,0,0,0.04
2014-12-12,68,58,50,67,55,49,99,89,63,30.01,29.69,0,0,0,1.85
2014-12-13,50,47,44,49,46,44,99,98,97,30.05,30.00,0,0,0,0.01
2014-12-14,74,59,48,56,51,42,99,78,38,30.08,29.96,0,0,0,0.00
2014-12-15,71,57,44,56,50,43,99,81,41,30.03,29.87,0,0,0,0.05
2014-12-16,67,59,54,57,55,53,99,87,65,29.96,29.88,0,0,0,0.12
2014-12-17,71,57,47,61,51,46,99,84,44,30.05,29.88,0,0,0,0.22
2014-12-18,66,55,48,55,51,46,99,88,65,30.16,30.03,0,0,0,0.01
2014-12-19,71,56,45,56,51,44,99,85,49,30.18,30.08,0,0,0,0.00
2014-12-20,71,58,50,61,55,50,99,91,65,30.13,30.03,0,0,0,0.00
2014-12-21,76,59,50,61,55,50,99,88,48,30.09,29.97,0,0,0,0.00
2014-12-22,84,63,47,64,54,46,99,77,35,29.99,29.87,0,0,0,0.00
2014-12-23,88,73,61,48,44,37,56,37,21,30.02,29.93,0,0,0,0.00
2014-12-24,85,64,51,61,49,38,99,65,22,30.01,29.73,0,0,0,0.00
2014-12-25,74,55,43,53,37,24,99,58,17,29.92,29.72,0,0,0,0.01
2014-12-26,68,53,39,37,25,17,72,38,16,30.15,29.91,0,0,0,0.00
2014-12-27,68,54,42,29,20,14,59,28,16,30.28,30.14,0,0,0,0.00
2014-12-28,70,52,41,45,34,20,90,54,15,30.24,30.09,0,0,0,0.00
2014-12-29,70,53,39,52,44,35,99,77,44,30.09,29.97,0,0,0,0.00
2014-12-30,68,54,43,55,37,14,99,62,21,29.97,29.82,0,0,0,0.00
2014-12-31,81,49,39,68,22,9,90,38,21,30.04,29.87,0,0,0,4.43
2015-1-1,67,49,35,42,32,21,92,56,25,30.04,29.94,0,0,0,0.00
2015-1-2,67,51,37,47,38,32,97,67,30,30.06,29.94,0,0,0,0.00